{"data":{"norad_id":61241,"intl_designator":"2024-174D","name":"2024-174D","alt_names":[],"object_type":"PAYLOAD","status":"ACTIVE","operator":null,"country":"PRC","launch_date":"2024-09-24","launch_site_code":"JSC","launch_vehicle":null,"mission":null,"orbit_class":"UNKNOWN","rcs_meters":null,"size_class":null,"mass_kg":null,"dimensions":null,"purposes":[],"wikipedia_slug":null,"has_3d_model":false,"image_url":null,"decayed_at":null,"tle_current":{"epoch":"2026-05-25T04:51:38.081376Z","epoch_age_seconds":64503,"freshness":"FRESH","line1":"1 61241U 24174D   26145.20252409  .00007412  00000+0  26345-3 0  9990","line2":"2 61241  97.4385 156.6329 0010328 318.4420  41.6034 15.29253205 92407","mean_motion":15.29253205,"eccentricity":0.0010328,"inclination_deg":97.4385,"raan_deg":156.6329,"arg_perigee_deg":318.442,"mean_anomaly_deg":41.6034,"bstar":0.00026345,"rev_number":9240,"period_min":94.163608439192,"perigee_km":470.96242384932,"apogee_km":485.12455026338,"semimajor_km":6856.1804870563,"source":"CELESTRAK","updated_at":"2026-05-25T13:38:02.346039Z"}}}